Location: South Tamworth Observatory
(43.8246°N, 71.3026°W)
Time: 12:35:08
(UTC-05:00)

Amateur Radio Satellites - All Passes

Search period start: 21 November 2014 12:05
Search period end: 22 November 2014 12:05
Location: South Tamworth Observatory, 43.8246°N, 71.3026°W

Satellite Date Start Highest point End Downlink Frequencies (MHz)
Time Altitude Azimuth
Oscar 19 21 Nov 12:13:57 12:19:01 71° 73° (ENE) 12:24:08 437.125/150
SO-50 21 Nov 12:17:27 12:21:48 32° 45° (NE) 12:26:11 436.795
CUBEBUG 1 21 Nov 12:20:12 12:23:19 19° 296° (WNW) 12:26:25 437.445
SPROUT 21 Nov 12:28:34 12:32:47 58° 287° (WNW) 12:36:58 437.525
ITUPSAT 1 21 Nov 12:32:52 12:36:55 26° 95° (E) 12:40:56 437.325
TISAT 1 21 Nov 12:35:23 12:39:23 42° 289° (WNW) 12:43:20 437.305
ESTCUBE 1 21 Nov 12:41:37 12:43:44 13° 300° (WNW) 12:45:51 437.505/2401.250
CUSAT 1 21 Nov 12:44:23 12:46:49 24° 96° (E) 12:49:02 437.405
SWISSCUBE 21 Nov 12:45:38 12:50:07 38° 98° (E) 12:54:34 437.505
DANDE 21 Nov 12:47:16 12:49:42 21° 96° (E) 12:51:52 436.750
AO-7 21 Nov 12:51:52 12:57:08 19° 46° (NE) 13:02:24 29.400- 29.500
ITAMSAT 1 21 Nov 12:55:11 13:00:22 69° 73° (ENE) 13:05:35 435.822/435.867
Gurwin Techsat 1B 21 Nov 12:57:08 13:02:05 41° 68° (ENE) 13:07:04 435.225
AUBIESAT-1 21 Nov 13:04:11 13:09:05 71° 107° (ESE) 13:13:58 437.475
M-CUBED/EXP-1 PRIME 21 Nov 13:05:39 13:10:35 79° 108° (ESE) 13:15:30 437.505
BEESAT 21 Nov 13:17:41 13:22:31 74° 103° (ESE) 13:27:17 436.000
YUBILEINY 21 Nov 13:24:15 13:32:53 61° 77° (ENE) 13:41:26 435.215
KKS-1 21 Nov 13:32:06 13:35:35 22° 94° (E) 13:39:02 437.445
HORYU 2 21 Nov 13:45:26 13:49:42 50° 72° (ENE) 13:54:00 437.375
Oscar 19 21 Nov 13:56:04 13:58:53 15° 270° (W) 14:01:43 437.125/150
SO-50 21 Nov 13:57:54 14:02:28 41° 243° (WSW) 14:07:02 436.795
ITUPSAT 1 21 Nov 14:10:28 14:14:53 36° 292° (WNW) 14:19:15 437.325
JAS-2 21 Nov 14:12:18 14:16:50 17° 51° (NE) 14:21:25 435.910
SWISSCUBE 21 Nov 14:23:52 14:27:48 26° 295° (WNW) 14:31:43 437.505
DANDE 21 Nov 14:32:45 14:33:10 10° 288° (WNW) 14:33:34 436.750
ITAMSAT 1 21 Nov 14:37:15 14:40:21 16° 270° (W) 14:43:29 435.822/435.867
Gurwin Techsat 1B 21 Nov 14:37:43 14:42:11 27° 266° (W) 14:46:40 435.225
STARS 21 Nov 14:38:09 14:42:34 75° 103° (ESE) 14:46:56 437.465
AO-7 21 Nov 14:40:19 14:48:32 73° 68° (ENE) 14:56:49 29.400- 29.500
AUBIESAT-1 21 Nov 14:40:21 14:43:33 18° 304° (WNW) 14:46:45 437.475
M-CUBED/EXP-1 PRIME 21 Nov 14:42:04 14:45:02 16° 305° (NW) 14:48:01 437.505
RS-15 21 Nov 14:56:20 15:04:15 24° 101° (E) 15:12:05 29.354- 29.394
BEESAT 21 Nov 14:57:09 14:59:46 15° 300° (WNW) 15:02:22 436.000
KKS-1 21 Nov 15:08:15 15:12:20 37° 291° (WNW) 15:16:24 437.445
YUBILEINY 21 Nov 15:21:51 15:29:07 31° 278° (W) 15:36:20 435.215
HORYU 2 21 Nov 15:23:54 15:26:41 16° 268° (W) 15:29:29 437.375
O/OREOS (USA 219) 21 Nov 15:29:23 15:33:20 30° 58° (ENE) 15:37:16 437.305
MOZHAYETS 4 21 Nov 15:37:18 15:39:49 14° 90° (E) 15:42:19
CUTE-I 21 Nov 15:39:48 15:42:49 15° 58° (ENE) 15:45:50 437.470
VERMONT LUNAR 21 Nov 15:43:15 15:45:27 15° 152° (SSE) 15:47:40 437.305
MaSat-1 21 Nov 15:44:24 15:47:26 47° 114° (ESE) 15:50:11 437.345
JAS-2 21 Nov 15:53:00 16:00:26 69° 71° (ENE) 16:08:16 435.910
STARS 21 Nov 16:16:38 16:18:27 12° 300° (WNW) 16:20:16 437.465
Cubesat XI-IV 21 Nov 16:34:19 16:39:22 44° 68° (ENE) 16:44:26 437.490
AO-7 21 Nov 16:35:23 16:42:00 26° 267° (W) 16:48:41 29.400- 29.500
PHONESAT 2.4 21 Nov 16:48:54 16:52:03 26° 159° (SSE) 16:55:13 2401.200-2431.200
PRISM 21 Nov 17:02:34 17:05:41 20° 93° (E) 17:08:46 437.425
RS-15 21 Nov 17:04:02 17:15:02 90° 123° (ESE) 17:26:03 29.354- 29.394
O/OREOS (USA 219) 21 Nov 17:08:49 17:12:40 29° 256° (WSW) 17:16:31 437.305
MOZHAYETS 4 21 Nov 17:12:51 17:17:28 63° 286° (WNW) 17:22:04
STRAND 1 21 Nov 17:13:37 17:14:23 10° 87° (E) 17:15:09 437.568
CUTE-I 21 Nov 17:16:49 17:22:11 84° 256° (WSW) 17:27:35 437.470
GONETS M04 21 Nov 17:18:57 17:23:29 15° 54° (NE) 17:27:59
VERMONT LUNAR 21 Nov 17:20:00 17:23:25 39° 168° (SSE) 17:26:51 437.305
JAS-2 21 Nov 17:39:53 17:46:00 27° 271° (W) 17:52:26 435.910
Cubesat XI-IV 21 Nov 18:15:09 18:19:37 26° 266° (W) 18:24:06 437.490
PHONESAT 2.4 21 Nov 18:26:54 18:30:30 49° 175° (S) 18:34:07 2401.200-2431.200
CUTE 1.7 & AOD 2 21 Nov 18:29:50 18:31:08 11° 60° (ENE) 18:32:27 437.475
HO-68 21 Nov 18:33:14 18:39:23 32° 59° (ENE) 18:45:33 435.675
PRISM 21 Nov 18:37:25 18:41:23 39° 290° (WNW) 18:45:19 437.425
CUBESAT XI-V 21 Nov 18:39:56 18:44:39 80° 102° (ESE) 18:49:18 437.345
STRAND 1 21 Nov 18:49:10 18:54:19 86° 104° (ESE) 18:59:25 437.568
DOVE 4 21 Nov 18:49:57 18:51:16 11° 61° (ENE) 18:52:35 437.250
VERMONT LUNAR 21 Nov 18:58:08 19:01:40 49° 185° (S) 19:05:12 437.305
CUTE-I 21 Nov 19:01:49 19:03:03 11° 273° (W) 19:04:16 437.470
DX 1 21 Nov 19:06:21 19:06:47 10° 58° (ENE) 19:07:14 434.975-435.025
GOMX 1 21 Nov 19:06:36 19:10:19 22° 66° (ENE) 19:13:51 467.674
SEEDS 21 Nov 19:06:53 19:10:13 23° 67° (ENE) 19:13:34 437.485
BRITE-PL 21 Nov 19:09:15 19:13:46 32° 69° (ENE) 19:18:01 437.365/2234.400
SHINDAISAT 21 Nov 19:12:04 19:13:51 29° 52° (NE) 19:15:36 437.305
GONETS M04 21 Nov 19:13:30 19:22:20 66° 78° (ENE) 19:31:03
RS-15 21 Nov 19:19:14 19:28:56 35° 331° (NNW) 19:38:48 29.354- 29.394
AIST 1 21 Nov 19:22:24 19:26:24 35° 91° (E) 19:30:26
CANX-2 21 Nov 19:27:06 19:31:08 47° 72° (ENE) 19:35:12 2200.000
AAUSAT CUBESAT 2 21 Nov 19:33:16 19:37:00 33° 70° (ENE) 19:40:45 437.432
PCSat 21 Nov 19:43:38 19:48:26 34° 111° (ESE) 19:53:17 145.827
COMPASS 1 21 Nov 19:44:46 19:48:47 50° 73° (ENE) 19:52:50 437.405
CINEMA 3 21 Nov 19:59:15 20:03:12 32° 70° (ENE) 20:07:03 145.822/145.860
CUTE 1.7 & AOD 2 21 Nov 20:02:15 20:06:28 77° 258° (WSW) 20:10:42 437.475
DELFI C3 21 Nov 20:03:18 20:06:53 30° 69° (ENE) 20:10:29 145.870
FUNcube-1 21 Nov 20:04:08 20:06:54 17° 64° (ENE) 20:09:40 145.935
PHONESAT 2.4 21 Nov 20:05:33 20:09:03 40° 193° (SSW) 20:12:33 2401.200-2431.200
CUBEBUG 2 21 Nov 20:06:33 20:10:02 24° 67° (ENE) 20:13:28 437.445
UKube-1 21 Nov 20:07:38 20:11:42 40° 70° (ENE) 20:15:48 .
50 SAT 21 Nov 20:11:42 20:12:12 10° 60° (ENE) 20:12:42 437.505
UWE-3 21 Nov 20:16:55 20:20:31 27° 68° (ENE) 20:24:04 435.000/436.395/437.385
CUBESAT XI-V 21 Nov 20:19:21 20:21:26 13° 300° (WNW) 20:23:31 437.345
HO-68 21 Nov 20:19:42 20:26:44 56° 258° (WSW) 20:33:49 435.675
Oscar 11 21 Nov 20:22:32 20:26:46 60° 74° (ENE) 20:31:01 145.826/435.025
DOVE 4 21 Nov 20:23:42 20:28:28 87° 257° (WSW) 20:32:58 437.250
STRAND 1 21 Nov 20:30:14 20:32:47 14° 302° (WNW) 20:35:20 437.568
VERMONT LUNAR 21 Nov 20:36:45 20:39:49 26° 201° (SSW) 20:42:52 437.305
DX 1 21 Nov 20:37:55 20:42:18 87° 75° (ENE) 20:46:43 434.975-435.025
SEEDS 21 Nov 20:42:10 20:45:55 32° 264° (W) 20:49:42 437.485
GOMX 1 21 Nov 20:43:31 20:48:14 43° 261° (W) 20:52:39 467.674
VELOX 1 21 Nov 20:46:38 20:50:41 34° 69° (ENE) 20:54:43 145.980
BRITE-PL 21 Nov 20:47:39 20:52:15 31° 264° (W) 20:56:34 437.365/2234.400
BEESAT 3 21 Nov 20:59:53 21:03:56 63° 121° (ESE) 21:08:04 437.485
AIST 1 21 Nov 21:00:46 21:04:10 22° 289° (WNW) 21:07:36
ZACube-1 21 Nov 21:02:13 21:06:27 71° 75° (ENE) 21:10:38 437.345
CANX-2 21 Nov 21:04:47 21:07:21 16° 269° (W) 21:09:57 2200.000
AISAT 21 Nov 21:09:23 21:13:48 59° 73° (ENE) 21:18:13 437.250
AAUSAT CUBESAT 2 21 Nov 21:09:32 21:12:45 22° 266° (W) 21:16:00 437.432
BEESAT 2 21 Nov 21:11:16 21:15:22 75° 122° (ESE) 21:19:34 435.950
GONETS M04 21 Nov 21:11:18 21:18:25 29° 279° (W) 21:25:30
TIGRISAT 21 Nov 21:17:47 21:19:42 13° 90° (E) 21:21:39 435.000
HUMSAT D 21 Nov 21:21:52 21:26:00 72° 75° (ENE) 21:30:08 437.325/437.525
COMPASS 1 21 Nov 21:22:29 21:24:50 15° 269° (W) 21:27:11 437.405
AIST 2 21 Nov 21:24:17 21:28:22 51° 119° (ESE) 21:32:33 435.215
PCSat 21 Nov 21:26:43 21:31:46 39° 310° (NW) 21:36:53 145.827
UNISAT 6 21 Nov 21:27:53 21:30:45 17° 92° (E) 21:33:38 437.425
POLYITAN 1 21 Nov 21:33:02 21:34:49 12° 90° (E) 21:36:36 437.675
QB50P2 21 Nov 21:36:43 21:38:55 14° 91° (E) 21:41:06 145.880/145.840
CINEMA 3 21 Nov 21:36:46 21:40:27 25° 265° (W) 21:44:02 145.822/145.860
RS-15 21 Nov 21:37:08 21:45:45 25° 6° (N) 21:54:33 29.354- 29.394
FUNcube-1 21 Nov 21:38:52 21:42:57 45° 261° (W) 21:47:00 145.935
DELFI C3 21 Nov 21:38:59 21:42:13 23° 266° (W) 21:45:29 145.870
CUBEBUG 1 21 Nov 21:40:39 21:44:53 44° 71° (ENE) 21:49:08 437.445
CUBEBUG 2 21 Nov 21:42:46 21:46:38 31° 263° (W) 21:50:26 437.445
50 SAT 21 Nov 21:42:52 21:46:55 79° 257° (WSW) 21:50:59 437.505
UKube-1 21 Nov 21:44:50 21:48:02 20° 267° (W) 21:51:15 .
PHONESAT 2.4 21 Nov 21:45:01 21:47:19 16° 209° (SSW) 21:49:36 2401.200-2431.200
DUCHIFAT 1 21 Nov 21:45:30 21:48:16 17° 92° (E) 21:51:00 145.980
SPROUT 21 Nov 21:50:29 21:52:42 14° 62° (ENE) 21:54:55 437.525
UWE-3 21 Nov 21:53:20 21:57:01 28° 264° (W) 22:00:40 435.000/436.395/437.385
TISAT 1 21 Nov 21:55:00 21:57:51 18° 64° (ENE) 22:00:42 437.305
ANTELSAT 21 Nov 21:55:11 21:59:09 32° 97° (E) 22:03:10 437.575/2403.000
Oscar 11 21 Nov 22:01:22 22:03:20 13° 270° (W) 22:05:20 145.826/435.025
NANOSAT C BR1 21 Nov 22:03:27 22:07:02 26° 95° (E) 22:10:35 145.865
ESTCUBE 1 21 Nov 22:03:53 22:08:26 81° 75° (ENE) 22:13:01 437.505/2401.250
QB50P1 21 Nov 22:12:29 22:16:19 33° 97° (E) 22:20:08 145.935-145.965
AUBIESAT-1 21 Nov 22:23:03 22:25:00 13° 53° (NE) 22:27:00 437.475
VELOX 1 21 Nov 22:23:38 22:27:19 25° 265° (W) 22:31:01 145.980
M-CUBED/EXP-1 PRIME 21 Nov 22:24:28 22:26:44 15° 54° (NE) 22:29:06 437.505
POPSAT HIP 1 21 Nov 22:36:23 22:40:35 61° 101° (E) 22:44:44 437.405
BEESAT 3 21 Nov 22:39:38 22:42:35 19° 320° (NW) 22:45:34 437.485
ZACube-1 21 Nov 22:42:31 22:43:18 10° 271° (W) 22:44:05 437.345
BUGSAT 1 21 Nov 22:48:13 22:52:21 69° 102° (ESE) 22:56:23 437.445
AISAT 21 Nov 22:48:22 22:50:49 14° 269° (W) 22:53:16 437.250
BEESAT 21 Nov 22:51:06 22:53:13 13° 58° (ENE) 22:55:20 436.000
BEESAT 2 21 Nov 22:51:27 22:54:10 17° 322° (NW) 22:56:56 435.950
TIGRISAT 21 Nov 22:52:33 22:56:52 64° 286° (WNW) 23:01:16 435.000
UNISAT 6 21 Nov 23:03:35 23:07:48 48° 288° (WNW) 23:12:06 437.425
AIST 2 21 Nov 23:03:56 23:07:18 22° 318° (NW) 23:10:41 435.215
POLYITAN 1 21 Nov 23:07:00 23:11:11 61° 287° (WNW) 23:15:20 437.675
QB50P2 21 Nov 23:11:03 23:15:11 55° 287° (WNW) 23:19:19 145.880/145.840
PCSat 21 Nov 23:16:10 23:16:47 10° 332° (NNW) 23:17:25 145.827
CUBEBUG 1 21 Nov 23:18:21 23:21:28 19° 268° (W) 23:24:37 437.445
CUSAT 1 21 Nov 23:19:15 23:22:56 32° 77° (ENE) 23:27:40 437.405
DUCHIFAT 1 21 Nov 23:20:21 23:24:23 44° 289° (WNW) 23:28:22 145.980
SPROUT 21 Nov 23:23:59 23:28:17 64° 259° (W) 23:32:36 437.525
DANDE 21 Nov 23:24:21 23:27:48 29° 77° (ENE) 23:32:13 436.750
TISAT 1 21 Nov 23:29:13 23:33:21 47° 261° (W) 23:37:29 437.305
ANTELSAT 21 Nov 23:32:13 23:35:51 26° 293° (WNW) 23:39:32 437.575/2403.000
NANOSAT C BR1 21 Nov 23:39:16 23:42:54 28° 292° (WNW) 23:46:31 145.865
ITUPSAT 1 21 Nov 23:41:05 23:45:27 36° 68° (ENE) 23:49:51 437.325
ISS 21 Nov 23:41:35 23:42:54 12° 131° (SE) 23:44:13 145.825
ESTCUBE 1 21 Nov 23:45:03 23:45:54 10° 272° (W) 23:46:45 437.505/2401.250
QB50P1 21 Nov 23:48:43 23:52:04 23° 294° (WNW) 23:55:24 145.935-145.965
RS-15 21 Nov 23:51:24 00:01:57 45° 39° (NE) 00:12:51 29.354- 29.394
SWISSCUBE 21 Nov 23:53:36 23:58:15 51° 71° (ENE) 00:02:55 437.505
AUBIESAT-1 21 Nov 23:55:26 23:59:20 72° 253° (WSW) 00:03:39 437.475
M-CUBED/EXP-1 PRIME 21 Nov 23:57:21 00:01:13 62° 254° (WSW) 00:05:29 437.505
POPSAT HIP 1 22 Nov 00:13:51 00:16:00 14° 298° (WNW) 00:18:09 437.405
Oscar 19 22 Nov 00:24:51 00:28:51 22° 93° (E) 00:32:51 437.125/150
BEESAT 22 Nov 00:25:35 00:30:22 85° 256° (WSW) 00:35:13 436.000
BUGSAT 1 22 Nov 00:25:44 00:27:17 12° 299° (WNW) 00:28:50 437.445
KKS-1 22 Nov 00:31:56 00:35:35 25° 66° (ENE) 00:39:13 437.445
YUBILEINY 22 Nov 00:36:45 00:39:58 13° 72° (ENE) 00:43:11 435.215
CUSAT 1 22 Nov 01:02:33 01:06:01 25° 265° (W) 01:10:19 437.405
ITAMSAT 1 22 Nov 01:07:33 01:11:30 22° 93° (E) 01:15:26 435.822/435.867
DANDE 22 Nov 01:07:54 01:11:14 25° 264° (W) 01:15:25 436.750
Gurwin Techsat 1B 22 Nov 01:13:21 01:16:12 15° 89° (E) 01:19:02 435.225
ISS 22 Nov 01:15:48 01:19:05 88° 147° (SSE) 01:22:23 145.825
ITUPSAT 1 22 Nov 01:19:21 01:23:24 27° 265° (W) 01:27:29 437.325
MaSat-1 22 Nov 01:22:45 01:25:00 47° 245° (WSW) 01:27:17 437.345
SWISSCUBE 22 Nov 01:33:04 01:36:24 19° 268° (W) 01:39:46 437.505
STARS 22 Nov 01:36:36 01:41:01 79° 75° (ENE) 01:45:27 437.465
Oscar 19 22 Nov 02:03:29 02:08:25 48° 290° (WNW) 02:13:21 437.125/150
RS-15 22 Nov 02:03:56 02:14:59 67° 243° (WSW) 02:26:32 29.354- 29.394
KKS-1 22 Nov 02:08:01 02:12:05 34° 263° (W) 02:16:09 437.445
YUBILEINY 22 Nov 02:26:16 02:34:57 67° 93° (E) 02:43:38 435.215
MOZHAYETS 4 22 Nov 02:41:00 02:43:54 17° 62° (ENE) 02:46:50
AO-7 22 Nov 02:41:37 02:47:34 21° 91° (E) 02:53:28 29.400- 29.500
ITAMSAT 1 22 Nov 02:46:16 02:51:16 49° 290° (WNW) 02:56:14 435.822/435.867
PCSat 22 Nov 02:49:35 02:49:45 10° 27° (NNE) 02:49:54 145.827
Gurwin Techsat 1B 22 Nov 02:51:25 02:56:45 76° 286° (WNW) 03:02:02 435.225
ISS 22 Nov 02:53:15 02:56:04 25° 346° (NNW) 02:58:53 145.825
HORYU 2 22 Nov 03:12:06 03:16:36 87° 105° (ESE) 03:21:06 437.375
STARS 22 Nov 03:17:28 03:18:03 10° 272° (W) 03:18:38 437.465
BEESAT 3 22 Nov 03:42:23 03:43:47 11° 33° (NNE) 03:45:10 437.485
BEESAT 2 22 Nov 03:53:40 03:55:36 13° 34° (NE) 03:57:32 435.950
PRISM 22 Nov 03:55:18 03:58:15 19° 64° (ENE) 04:01:14 437.425
AIST 2 22 Nov 04:08:38 04:09:43 11° 31° (NNE) 04:10:47 435.215
CUBESAT XI-V 22 Nov 04:11:00 04:12:35 12° 59° (ENE) 04:14:09 437.345
SO-50 22 Nov 04:13:40 04:18:00 48° 119° (ESE) 04:22:29 436.795
MOZHAYETS 4 22 Nov 04:16:10 04:20:41 57° 260° (W) 04:25:15
RS-15 22 Nov 04:19:42 04:25:09 15° 264° (W) 04:30:44 29.354- 29.394
YUBILEINY 22 Nov 04:25:01 04:32:26 30° 294° (WNW) 04:39:53 435.215
STRAND 1 22 Nov 04:29:11 04:32:51 20° 61° (ENE) 04:36:31 437.568
PCSat 22 Nov 04:29:42 04:34:47 39° 50° (NE) 04:39:49 145.827
ISS 22 Nov 04:30:50 04:33:28 21° 7° (N) 04:36:06 145.825
AO-7 22 Nov 04:32:54 04:41:19 86° 290° (WNW) 04:49:41 29.400- 29.500
Gurwin Techsat 1B 22 Nov 04:34:02 04:35:48 12° 305° (NW) 04:37:34 435.225
JAS-2 22 Nov 04:47:11 04:54:25 56° 98° (E) 05:00:49 435.910
HORYU 2 22 Nov 04:51:16 04:52:36 11° 301° (WNW) 04:53:56 437.375
Cubesat XI-IV 22 Nov 04:51:39 04:54:38 15° 89° (E) 04:57:37 437.490
BEESAT 3 22 Nov 05:18:43 05:22:54 60° 53° (NE) 05:27:01 437.485
PRISM 22 Nov 05:29:32 05:33:30 42° 261° (W) 05:37:33 437.425
AIST 1 22 Nov 05:30:18 05:31:41 11° 65° (ENE) 05:33:02
BEESAT 2 22 Nov 05:30:27 05:34:41 72° 54° (NE) 05:38:51 435.950
CUTE-I 22 Nov 05:32:58 05:37:50 35° 97° (E) 05:42:38 437.470
O/OREOS (USA 219) 22 Nov 05:43:23 05:47:05 26° 103° (ESE) 05:50:48 437.305
CUBESAT XI-V 22 Nov 05:44:33 05:49:16 89° 76° (ENE) 05:54:02 437.345
AIST 2 22 Nov 05:45:06 05:49:21 52° 52° (NE) 05:53:31 435.215
SO-50 22 Nov 05:54:58 05:58:47 26° 318° (NW) 06:02:44 436.795
STRAND 1 22 Nov 06:06:31 06:11:35 58° 259° (W) 06:16:42 437.568
ISS 22 Nov 06:07:24 06:10:39 51° 26° (NNE) 06:13:53 145.825
PCSat 22 Nov 06:13:15 06:18:08 35° 249° (WSW) 06:22:58 145.827
GONETS M04 22 Nov 06:25:07 06:29:12 14° 73° (ENE) 06:33:16
AO-7 22 Nov 06:26:58 06:33:00 23° 310° (NW) 06:39:02 29.400- 29.500
Cubesat XI-IV 22 Nov 06:29:58 06:35:18 74° 287° (WNW) 06:40:35 437.490
JAS-2 22 Nov 06:32:42 06:39:00 32° 300° (WNW) 06:44:45 435.910
BEESAT 3 22 Nov 06:58:19 07:00:39 15° 250° (WSW) 07:02:58 437.485
AIST 1 22 Nov 07:05:31 07:09:56 74° 264° (W) 07:14:16
BEESAT 2 22 Nov 07:10:40 07:12:23 12° 252° (WSW) 07:14:07 435.950
CUTE-I 22 Nov 07:13:08 07:17:50 33° 294° (WNW) 07:22:30 437.470
O/OREOS (USA 219) 22 Nov 07:22:16 07:26:21 34° 301° (WNW) 07:30:26 437.305
AIST 2 22 Nov 07:24:42 07:27:35 18° 249° (WSW) 07:30:26 435.215
ISS 22 Nov 07:44:25 07:47:08 24° 224° (SW) 07:49:50 145.825
HO-68 22 Nov 07:46:22 07:52:18 27° 94° (E) 07:58:10 435.675
CUTE 1.7 & AOD 2 22 Nov 07:47:34 07:50:23 17° 92° (E) 07:53:11 437.475
Cubesat XI-IV 22 Nov 08:12:48 08:14:27 11° 305° (NW) 08:16:06 437.490
GONETS M04 22 Nov 08:15:35 08:24:18 72° 94° (E) 08:33:07
TIGRISAT 22 Nov 08:18:42 08:20:55 14° 62° (ENE) 08:23:08 435.000
DOVE 4 22 Nov 08:22:29 08:25:33 20° 93° (E) 08:28:37 437.250
SEEDS 22 Nov 08:25:18 08:29:16 37° 97° (E) 08:33:13 437.485
DX 1 22 Nov 08:26:56 08:29:04 13° 91° (E) 08:31:12 434.975-435.025
POLYITAN 1 22 Nov 08:28:28 08:30:26 13° 61° (ENE) 08:32:24 437.675
UNISAT 6 22 Nov 08:29:06 08:32:00 18° 64° (ENE) 08:34:55 437.425
QB50P2 22 Nov 08:31:57 08:34:12 14° 62° (ENE) 08:36:27 145.880/145.840
DUCHIFAT 1 22 Nov 08:40:18 08:43:02 17° 63° (ENE) 08:45:46 145.980
GOMX 1 22 Nov 08:44:01 08:48:01 44° 99° (E) 08:52:01 467.674
CANX-2 22 Nov 08:47:01 08:51:19 82° 103° (ESE) 08:55:37 2200.000
BRITE-PL 22 Nov 08:50:43 08:54:54 75° 102° (ESE) 08:59:02 437.365/2234.400
AAUSAT CUBESAT 2 22 Nov 08:50:47 08:54:56 53° 100° (E) 08:59:05 437.432
ZACube-1 22 Nov 08:51:47 08:53:22 12° 90° (E) 08:54:58 437.345
ANTELSAT 22 Nov 08:56:12 09:00:02 33° 69° (ENE) 09:03:53 437.575/2403.000
NANOSAT C BR1 22 Nov 08:58:04 09:01:34 25° 67° (ENE) 09:05:04 145.865
COMPASS 1 22 Nov 09:03:00 09:07:16 83° 103° (ESE) 09:11:31 437.405
QB50P1 22 Nov 09:07:03 09:10:48 31° 69° (ENE) 09:14:34 145.935-145.965
HUMSAT D 22 Nov 09:08:06 09:08:51 10° 89° (E) 09:09:37 437.325/437.525
DELFI C3 22 Nov 09:17:42 09:21:41 45° 99° (E) 09:25:39 145.870
CUTE 1.7 & AOD 2 22 Nov 09:22:27 09:26:33 45° 288° (WNW) 09:30:38 437.475
50 SAT 22 Nov 09:24:20 09:26:20 13° 91° (E) 09:28:19 437.505
FUNcube-1 22 Nov 09:26:21 09:30:00 28° 96° (E) 09:33:40 145.935
CINEMA 3 22 Nov 09:29:24 09:33:33 66° 101° (ESE) 09:37:47 145.822/145.860
UKube-1 22 Nov 09:30:05 09:34:24 62° 102° (ESE) 09:38:41 .
POPSAT HIP 1 22 Nov 09:30:46 09:34:56 55° 73° (ENE) 09:39:07 437.405
CUBEBUG 2 22 Nov 09:32:09 09:36:11 44° 99° (E) 09:40:16 437.445
HO-68 22 Nov 09:33:22 09:40:26 62° 292° (WNW) 09:47:27 435.675
BUGSAT 1 22 Nov 09:39:40 09:43:51 58° 73° (ENE) 09:48:03 437.445
UWE-3 22 Nov 09:41:21 09:45:25 48° 99° (E) 09:49:33 435.000/436.395/437.385
Oscar 11 22 Nov 09:44:40 09:49:02 79° 285° (WNW) 09:53:22 145.826/435.025
TIGRISAT 22 Nov 09:52:59 09:57:13 60° 259° (W) 10:01:26 435.000
ESTCUBE 1 22 Nov 09:56:55 09:59:41 16° 91° (E) 10:02:26 437.505/2401.250
DOVE 4 22 Nov 09:59:41 10:03:28 35° 290° (WNW) 10:07:18 437.250
DX 1 22 Nov 10:01:24 10:05:43 60° 287° (WNW) 10:09:58 434.975-435.025
POLYITAN 1 22 Nov 10:01:36 10:05:52 67° 258° (WSW) 10:10:07 437.675
SEEDS 22 Nov 10:01:39 10:04:53 21° 294° (WNW) 10:08:07 437.485
UNISAT 6 22 Nov 10:04:23 10:08:30 44° 261° (W) 10:12:36 437.425
QB50P2 22 Nov 10:05:25 10:09:39 61° 259° (W) 10:13:53 145.880/145.840
VELOX 1 22 Nov 10:12:22 10:16:44 56° 101° (E) 10:21:04 145.980
DUCHIFAT 1 22 Nov 10:14:24 10:18:33 49° 260° (W) 10:22:42 145.980
GONETS M04 22 Nov 10:14:48 10:21:59 27° 296° (WNW) 10:29:14
GOMX 1 22 Nov 10:23:12 10:25:50 17° 296° (WNW) 10:28:29 467.674
CANX-2 22 Nov 10:25:28 10:26:38 11° 300° (WNW) 10:27:47 2200.000
ZACube-1 22 Nov 10:26:00 10:30:10 63° 286° (WNW) 10:34:22 437.345
AAUSAT CUBESAT 2 22 Nov 10:27:42 10:30:13 16° 297° (WNW) 10:32:43 437.432
BRITE-PL 22 Nov 10:31:57 10:32:49 11° 300° (WNW) 10:33:41 437.365/2234.400
ANTELSAT 22 Nov 10:33:32 10:36:56 23° 266° (W) 10:40:19 437.575/2403.000
NANOSAT C BR1 22 Nov 10:33:33 10:37:21 31° 264° (W) 10:41:09 145.865
AISAT 22 Nov 10:35:55 10:40:23 80° 285° (WNW) 10:44:47 437.250
HUMSAT D 22 Nov 10:41:00 10:45:08 70° 285° (WNW) 10:49:17 437.325/437.525
COMPASS 1 22 Nov 10:41:26 10:42:22 11° 300° (WNW) 10:43:17 437.405
QB50P1 22 Nov 10:43:12 10:46:43 25° 265° (W) 10:50:15 145.935-145.965
DELFI C3 22 Nov 10:53:57 10:56:40 17° 296° (WNW) 10:59:23 145.870
50 SAT 22 Nov 10:58:02 11:01:59 52° 287° (WNW) 11:05:56 437.505
FUNcube-1 22 Nov 11:02:47 11:06:18 26° 292° (WNW) 11:09:51 145.935
SO-50 22 Nov 11:04:23 11:07:05 15° 32° (NNE) 11:09:48 436.795
CUBEBUG 1 22 Nov 11:04:41 11:09:05 76° 103° (ESE) 11:13:25 437.445
SHINDAISAT 22 Nov 11:06:34 11:08:23 43° 307° (NW) 11:10:13 437.305
UKube-1 22 Nov 11:07:43 11:10:05 15° 299° (WNW) 11:12:26 .
CINEMA 3 22 Nov 11:08:31 11:10:17 13° 298° (WNW) 11:12:04 145.822/145.860
POPSAT HIP 1 22 Nov 11:08:56 11:11:11 14° 269° (W) 11:13:27 437.405
CUBEBUG 2 22 Nov 11:09:47 11:12:36 18° 295° (WNW) 11:15:27 437.445
SPROUT 22 Nov 11:10:26 11:13:37 20° 93° (E) 11:16:47 437.525
TISAT 1 22 Nov 11:13:34 11:17:01 24° 95° (E) 11:20:26 437.305
BUGSAT 1 22 Nov 11:17:37 11:19:43 13° 270° (W) 11:21:49 437.445
UWE-3 22 Nov 11:18:59 11:21:38 17° 296° (WNW) 11:24:18 435.000/436.395/437.385
HO-68 22 Nov 11:23:28 11:26:45 14° 312° (NW) 11:30:01 435.675
ESTCUBE 1 22 Nov 11:32:27 11:36:55 55° 288° (WNW) 11:41:20 437.505/2401.250
M-CUBED/EXP-1 PRIME 22 Nov 11:41:19 11:42:52 11° 93° (E) 11:44:25 437.505
Oscar 19 22 Nov 11:42:54 11:47:33 37° 68° (ENE) 11:52:14 437.125/150
VELOX 1 22 Nov 11:50:11 11:52:53 16° 298° (WNW) 11:55:35 145.980
SWISSCUBE 22 Nov 11:55:03 11:56:49 12° 88° (E) 11:58:35 437.505
